EW4964 Weather Reports


time (UTC)temp
F
wind
direction
speed
knots
gust
knots
rain 1hr
in
rain 24hr
in
rain mn
in
humidity
%
barometer
mb
20260903013004 57 31 2.6 5.2 0.00 0.00 0.00 41 1018.9
20260903011504 56 1 0.0 0.9 0.00 0.00 0.00 39 1018.7
20260903010004 56 1 0.0 0.9 0.00 0.00 0.00 37 1018.8
20260903004504 57 1 0.0 1.7 0.00 0.00 0.00 37 1018.7
20260903001508 58 1 0.0 0.9 0.00 0.00 0.00 37 1018.6
20260903000008 57 1 0.0 1.7 0.00 0.00 0.00 37 1018.4
20260902233008 57 1 1.7 3.5 0.00 0.00 0.00 37 1018.8
20260902231507 56 1 0.0 1.7 0.00 0.00 0.00 36 1019.1
20260902230008 57 0 0.0 0.0 0.00 0.00 0.00 35 1019.0
20260902224507 58 314 0.0 0.9 0.00 0.00 0.00 35 1019.0
20260902223008 59 315 0.0 1.7 0.00 0.00 0.00 34 1018.8
20260902221507 60 294 0.9 3.5 0.00 0.00 0.00 33 1018.9
20260902220013 60 259 1.7 3.5 0.00 0.00 0.00 34 1019.1
20260902214508 60 248 1.7 3.5 0.00 0.00 0.00 34 1019.0
20260902213008 60 266 0.9 3.5 0.00 0.00 0.00 34 1018.9
20260902211507 60 280 0.9 1.7 0.00 0.00 0.00 35 1019.0
20260902210008 58 46 0.0 1.7 0.00 0.00 0.00 37 1018.9
20260902204507 58 45 0.0 0.9 0.00 0.00 0.00 37 1018.7
20260902203007 58 45 0.0 0.9 0.00 0.00 0.00 37 1018.9
20260902201507 58 45 0.0 0.9 0.00 0.00 0.00 37 1018.8
20260902200007 58 45 0.0 0.9 0.00 0.00 0.00 36 1018.8
20260902194507 58 45 0.0 0.9 0.00 0.00 0.00 36 1018.8
20260902193007 59 45 0.0 0.9 0.00 0.00 0.00 36 1018.7
20260902191507 59 45 0.0 1.7 0.00 0.00 0.00 36 1018.9
20260902190007 60 46 0.9 1.7 0.00 0.00 0.00 35 1018.8
20260902184507 60 45 0.9 1.7 0.00 0.00 0.00 35 1018.7
20260902183007 61 45 0.9 2.6 0.00 0.00 0.00 34 1018.8
20260902181507 62 45 0.9 1.7 0.00 0.00 0.00 31 1018.7
20260902180008 62 45 0.9 1.7 0.00 0.00 0.00 31 1018.8
20260902173007 64 45 0.9 1.7 0.00 0.00 0.00 29 1018.5
20260902171507 65 45 0.9 2.6 0.00 0.00 0.00 28 1018.7
20260902170007 67 45 1.7 2.6 0.00 0.00 0.00 27 1018.6
20260902164506 68 45 1.7 3.5 0.00 0.00 0.00 26 1018.6
20260902163007 71 42 1.7 6.1 0.00 0.00 0.00 25 1018.5
20260902161507 73 351 1.7 3.5 0.00 0.00 0.00 22 1018.6
20260902160009 73 317 1.7 3.5 0.00 0.00 0.00 22 1018.5
20260902154507 72 323 1.7 7.0 0.00 0.00 0.00 22 1018.5
20260902153007 71 261 3.5 6.1 0.00 0.00 0.00 22 1018.6
20260902151506 71 333 2.6 5.2 0.00 0.00 0.00 22 1018.8
20260902150006 69 271 1.7 6.1 0.00 0.00 0.00 25 1018.6
20260902143006 69 324 1.7 3.5 0.00 0.00 0.00 25 1019.0
20260902134506 69 351 1.7 5.2 0.00 0.00 0.00 25 1019.2
20260902133006 69 315 3.5 8.7 0.00 0.00 0.00 24 1019.1
20260902131506 70 290 2.6 6.1 0.00 0.00 0.00 24 1019.0
20260902123007 72 246 3.5 9.6 0.00 0.00 0.00 22 1019.4
20260902121506 71 281 2.6 6.1 0.00 0.00 0.00 22 1019.7
20260902120006 70 317 3.5 6.1 0.00 0.00 0.00 24 1019.6
20260902114506 71 15 3.5 8.7 0.00 0.00 0.00 24 1019.8
20260902113006 70 290 3.5 7.8 0.00 0.00 0.00 24 1019.9
20260902111506 69 274 3.5 7.0 0.00 0.00 0.00 24 1020.1
20260902110008 68 248 4.3 9.6 0.00 0.00 0.00 24 1020.0
20260902104506 69 244 3.5 6.1 0.00 0.00 0.00 24 1020.0
20260902101505 69 330 3.5 8.7 0.00 0.00 0.00 25 1020.0
20260902100006 69 279 4.3 8.7 0.00 0.00 0.00 24 1020.1
20260902094506 68 334 2.6 5.2 0.00 0.00 0.00 26 1020.1
20260902093006 67 302 3.5 9.6 0.00 0.00 0.00 25 1020.1
20260902091505 66 246 4.3 9.6 0.00 0.00 0.00 26 1020.2
20260902090006 65 269 3.5 7.8 0.00 0.00 0.00 27 1020.2
20260902084505 65 255 2.6 7.0 0.00 0.00 0.00 27 1020.3
20260902083006 64 256 4.3 9.6 0.00 0.00 0.00 27 1020.4
20260902081506 64 305 3.5 7.0 0.00 0.00 0.00 29 1020.4
20260902080005 62 333 2.6 5.2 0.00 0.00 0.00 31 1020.2
20260902074505 62 241 2.6 4.3 0.00 0.00 0.00 31 1020.2
20260902073005 62 353 2.6 7.0 0.00 0.00 0.00 31 1020.3
20260902071506 62 265 1.7 4.3 0.00 0.00 0.00 32 1020.1
20260902070007 60 298 1.7 5.2 0.00 0.00 0.00 36 1020.0
20260902064505 59 10 1.7 3.5 0.00 0.00 0.00 37 1020.1
20260902063005 58 334 1.7 3.5 0.00 0.00 0.00 38 1019.9
20260902060006 56 1 0.9 1.7 0.00 0.00 0.00 40 1020.0
20260902054506 56 315 0.0 1.7 0.00 0.00 0.00 41 1019.8
20260902053005 55 323 0.0 0.9 0.00 0.00 0.00 41 1019.8
20260902051505 54 311 0.0 1.7 0.00 0.00 0.00 41 1019.6
20260902050008 54 328 0.9 2.6 0.00 0.00 0.00 42 1019.7
20260902044505 53 306 0.0 1.7 0.00 0.00 0.00 42 1019.8
20260902043005 52 311 0.9 1.7 0.00 0.00 0.00 44 1019.6
20260902040005 52 315 0.0 0.9 0.00 0.00 0.00 44 1019.5
20260902033005 52 306 0.0 1.7 0.00 0.00 0.00 43 1019.6
20260902031504 52 288 0.0 1.7 0.00 0.00 0.00 43 1019.5
20260902030005 53 332 0.0 1.7 0.00 0.00 0.00 41 1019.4
20260902024504 53 333 0.9 1.7 0.00 0.00 0.00 41 1019.5
20260902023005 52 313 0.0 1.7 0.00 0.00 0.00 43 1019.5
20260902021504 53 0 0.0 0.0 0.00 0.00 0.00 42 1019.4
20260902014505 53 270 0.0 0.9 0.00 0.00 0.00 39 1019.6